StationID,Date,MaxTemp,MinTemp,Precipitation,Snowfall,SnowDepth
"CA001064290","1902-10-01",53.06,33.98,0.00,0.00,
"CA001064290","1902-10-02",57.02,37.04,0.00,0.00,
"CA001064290","1902-10-03",59.00,35.96,0.00,0.00,
"CA001064290","1902-10-04",62.96,42.98,0.00,0.00,
"CA001064290","1902-10-05",62.96,42.98,0.00,0.00,
"CA001064290","1902-10-06",69.08,39.92,0.00,0.00,
"CA001064290","1902-10-07",57.02,39.02,0.00,0.00,
"CA001064290","1902-10-08",57.02,46.94,0.00,0.00,
"CA001064290","1902-10-09",60.08,42.98,0.00,0.00,
"CA001064290","1902-10-10",64.04,39.02,0.00,0.00,
"CA001064290","1902-10-11",73.04,37.94,0.00,0.00,
"CA001064290","1902-10-12",57.02,37.04,0.00,0.00,
"CA001064290","1902-10-13",57.92,44.96,0.00,0.00,
"CA001064290","1902-10-14",51.98,46.94,0.00,0.00,
"CA001064290","1902-10-15",55.94,35.06,13.00,0.00,
"CA001064290","1902-10-16",46.94,30.02,157.00,0.00,
"CA001064290","1902-10-17",51.98,39.02,0.00,0.00,
"CA001064290","1902-10-18",42.98,35.06,64.00,0.00,
"CA001064290","1902-10-19",44.06,35.06,81.00,0.00,
"CA001064290","1902-10-20",44.96,39.02,41.00,0.00,
"CA001064290","1902-10-21",48.02,42.08,145.00,0.00,
"CA001064290","1902-10-22",55.94,37.94,53.00,0.00,
"CA001064290","1902-10-23",46.94,41.00,61.00,0.00,
"CA001064290","1902-10-24",46.04,39.02,0.00,0.00,
"CA001064290","1902-10-25",42.98,35.06,3.00,0.00,
"CA001064290","1902-10-26",48.02,30.92,0.00,0.00,
"CA001064290","1902-10-27",48.92,39.92,224.00,0.00,
"CA001064290","1902-10-28",48.02,42.98,297.00,0.00,
"CA001064290","1902-10-29",44.96,32.00,279.00,0.00,
"CA001064290","1902-10-30",44.96,35.06,84.00,0.00,
"CA001064290","1902-10-31",41.00,33.98,61.00,0.00,
"CA001064290","1902-11-01",46.04,32.00,10.00,10.00,
"CA001064290","1902-11-02",46.04,30.92,0.00,0.00,
"CA001064290","1902-11-03",46.94,33.98,10.00,0.00,
"CA001064290","1902-11-04",42.98,26.96,330.00,0.00,
"CA001064290","1902-11-05",37.04,23.00,0.00,0.00,
"CA001064290","1902-11-06",26.96,21.02,0.00,0.00,
"CA001064290","1902-11-07",17.06,12.02,0.00,0.00,
"CA001064290","1902-11-08",17.06,10.04,0.00,0.00,
"CA001064290","1902-11-09",21.92,15.08,0.00,0.00,
"CA001064290","1902-11-10",30.02,23.00,13.00,0.00,
"CA001064290","1902-11-11",37.04,24.98,0.00,0.00,
"CA001064290","1902-11-12",39.02,28.94,0.00,0.00,
"CA001064290","1902-11-13",42.98,26.96,0.00,0.00,
"CA001064290","1902-11-14",35.96,28.94,307.00,0.00,
"CA001064290","1902-11-15",37.04,30.92,178.00,0.00,
"CA001064290","1902-11-16",37.04,30.02,594.00,0.00,
"CA001064290","1902-11-17",37.04,30.92,719.00,0.00,
"CA001064290","1902-11-18",37.94,30.92,3.00,3.00,
"CA001064290","1902-11-19",44.06,26.96,0.00,0.00,
"CA001064290","1902-11-20",48.02,41.00,53.00,53.00,
"CA001064290","1902-11-21",46.94,35.96,64.00,64.00,
"CA001064290","1902-11-22",46.94,32.00,0.00,0.00,
"CA001064290","1902-11-23",33.98,26.96,0.00,0.00,
"CA001064290","1902-11-24",37.04,28.04,0.00,0.00,
"CA001064290","1902-11-25",46.94,39.92,8.00,8.00,
"CA001064290","1902-11-26",48.92,35.96,5.00,5.00,
"CA001064290","1902-11-27",37.04,30.92,5.00,5.00,
"CA001064290","1902-11-28",37.04,30.02,0.00,0.00,
"CA001064290","1902-11-29",35.96,30.02,0.00,0.00,
"CA001064290","1902-11-30",37.04,30.92,0.00,0.00,
"CA001064290","1902-12-01",33.98,30.92,0.00,0.00,
"CA001064290","1902-12-02",35.06,30.92,0.00,0.00,
"CA001064290","1902-12-03",33.98,28.04,165.00,0.00,
"CA001064290","1902-12-04",28.04,14.00,257.00,30.00,
"CA001064290","1902-12-05",17.96,10.94,338.00,28.00,
"CA001064290","1902-12-06",17.06,6.98,0.00,0.00,
"CA001064290","1902-12-07",19.94,8.06,0.00,0.00,
"CA001064290","1902-12-08",24.08,15.08,0.00,0.00,
"CA001064290","1902-12-09",23.00,12.02,0.00,0.00,
"CA001064290","1902-12-10",15.98,10.04,0.00,0.00,
"CA001064290","1902-12-11",15.08,5.00,0.00,0.00,
"CA001064290","1902-12-12",12.02,6.08,0.00,0.00,
"CA001064290","1902-12-13",15.98,5.00,0.00,0.00,
"CA001064290","1902-12-14",37.04,12.92,30.00,30.00,
"CA001064290","1902-12-15",35.06,30.02,20.00,20.00,
"CA001064290","1902-12-16",35.96,32.00,38.00,38.00,
"CA001064290","1902-12-17",39.02,33.08,20.00,20.00,
"CA001064290","1902-12-18",35.96,30.92,356.00,356.00,
"CA001064290","1902-12-19",35.96,30.02,10.00,10.00,
"CA001064290","1902-12-20",33.98,30.02,46.00,46.00,
"CA001064290","1902-12-21",28.04,17.06,0.00,0.00,
"CA001064290","1902-12-22",19.94,8.96,0.00,0.00,
"CA001064290","1902-12-23",15.08,12.02,0.00,0.00,
"CA001064290","1902-12-24",15.98,6.98,0.00,0.00,
"CA001064290","1902-12-25",26.06,17.96,0.00,0.00,
"CA001064290","1902-12-26",30.92,19.94,0.00,0.00,
"CA001064290","1902-12-27",37.04,30.92,5.00,5.00,
"CA001064290","1902-12-28",39.02,32.00,0.00,0.00,
"CA001064290","1902-12-29",42.98,33.98,76.00,0.00,
"CA001064290","1902-12-30",39.02,30.92,30.00,0.00,
"CA001064290","1902-12-31",35.96,32.00,0.00,0.00,
"CA001064290","1903-01-01",33.98,23.00,0.00,0.00,
"CA001064290","1903-01-02",35.06,26.96,203.00,0.00,
"CA001064290","1903-01-03",37.94,33.08,419.00,0.00,
"CA001064290","1903-01-04",39.02,33.08,58.00,0.00,
"CA001064290","1903-01-05",37.94,30.92,0.00,0.00,
"CA001064290","1903-01-06",41.00,30.02,0.00,0.00,
"CA001064290","1903-01-07",44.96,24.98,0.00,0.00,
"CA001064290","1903-01-08",42.08,26.06,0.00,0.00,
"CA001064290","1903-01-09",33.08,23.00,0.00,0.00,
"CA001064290","1903-01-10",35.06,17.06,0.00,0.00,
"CA001064290","1903-01-11",30.92,19.94,0.00,0.00,
"CA001064290","1903-01-12",35.96,30.02,0.00,0.00,
"CA001064290","1903-01-13",35.06,30.92,0.00,0.00,
"CA001064290","1903-01-14",39.02,32.00,0.00,0.00,
"CA001064290","1903-01-15",39.02,30.02,0.00,0.00,
"CA001064290","1903-01-16",42.98,30.92,64.00,0.00,
"CA001064290","1903-01-17",48.92,33.98,0.00,0.00,
"CA001064290","1903-01-18",35.96,30.92,0.00,0.00,
"CA001064290","1903-01-19",37.04,32.00,0.00,0.00,
"CA001064290","1903-01-20",35.06,32.00,20.00,20.00,
"CA001064290","1903-01-21",35.06,30.92,15.00,15.00,
"CA001064290","1903-01-22",35.96,28.94,0.00,0.00,
"CA001064290","1903-01-23",39.92,30.02,15.00,15.00,
"CA001064290","1903-01-24",41.00,30.02,0.00,0.00,
"CA001064290","1903-01-25",35.06,26.96,0.00,0.00,
"CA001064290","1903-01-26",30.92,28.04,0.00,0.00,
"CA001064290","1903-01-27",30.02,21.92,0.00,0.00,
"CA001064290","1903-01-28",28.94,14.00,0.00,0.00,
"CA001064290","1903-01-29",21.92,14.00,0.00,0.00,
"CA001064290","1903-01-30",30.02,21.02,0.00,0.00,
"CA001064290","1903-01-31",28.04,17.96,0.00,0.00,
"CA001064290","1903-02-01",35.06,24.08,0.00,0.00,
"CA001064290","1903-02-02",37.04,33.08,30.00,30.00,
"CA001064290","1903-02-03",35.06,33.08,0.00,0.00,
"CA001064290","1903-02-04",37.04,32.00,0.00,0.00,
"CA001064290","1903-02-05",37.04,30.92,0.00,0.00,
"CA001064290","1903-02-06",37.94,30.92,0.00,0.00,
"CA001064290","1903-02-07",37.04,30.92,5.00,5.00,
"CA001064290","1903-02-08",35.06,26.96,23.00,23.00,
"CA001064290","1903-02-09",30.92,26.06,0.00,0.00,
"CA001064290","1903-02-10",35.96,26.96,0.00,0.00,
"CA001064290","1903-02-11",35.06,19.94,0.00,0.00,
"CA001064290","1903-02-12",35.06,-7.06,0.00,0.00,
"CA001064290","1903-02-13",24.98,-7.06,0.00,0.00,
"CA001064290","1903-02-14",32.00,8.06,0.00,0.00,
"CA001064290","1903-02-15",32.00,15.08,0.00,0.00,
"CA001064290","1903-02-16",35.06,24.08,0.00,0.00,
"CA001064290","1903-02-17",39.02,19.04,0.00,0.00,
"CA001064290","1903-02-18",35.96,14.00,0.00,0.00,
"CA001064290","1903-02-19",35.06,21.92,0.00,0.00,
"CA001064290","1903-02-20",35.96,24.98,0.00,0.00,
"CA001064290","1903-02-21",41.00,28.04,305.00,0.00,
"CA001064290","1903-02-22",42.98,28.94,0.00,0.00,
"CA001064290","1903-02-23",41.00,30.02,23.00,0.00,
"CA001064290","1903-02-24",41.00,32.00,0.00,0.00,
"CA001064290","1903-02-25",42.08,30.92,140.00,0.00,
"CA001064290","1903-02-26",44.96,28.04,0.00,0.00,
"CA001064290","1903-02-27",44.06,28.94,0.00,0.00,
"CA001064290","1903-02-28",42.98,28.04,203.00,0.00,
"CA001064290","1903-06-01",62.96,33.98,0.00,0.00,
"CA001064290","1903-06-02",60.98,33.08,0.00,0.00,
"CA001064290","1903-06-03",60.98,33.98,0.00,0.00,
"CA001064290","1903-06-04",55.94,44.96,25.00,0.00,
"CA001064290","1903-06-05",55.04,46.04,66.00,0.00,
"CA001064290","1903-06-06",55.94,42.08,0.00,0.00,
"CA001064290","1903-06-07",80.96,53.96,0.00,0.00,
"CA001064290","1903-06-08",91.94,48.02,0.00,0.00,
"CA001064290","1903-06-09",71.96,46.94,0.00,0.00,
"CA001064290","1903-06-10",69.08,48.92,0.00,0.00,
"CA001064290","1903-06-11",78.08,42.98,0.00,0.00,
"CA001064290","1903-06-12",57.92,46.94,127.00,0.00,
"CA001064290","1903-06-13",57.92,46.94,0.00,0.00,
"CA001064290","1903-06-14",71.96,48.02,0.00,0.00,
"CA001064290","1903-06-15",78.08,50.00,0.00,0.00,
"CA001064290","1903-06-16",78.98,57.92,0.00,0.00,
"CA001064290","1903-06-17",59.00,48.92,66.00,0.00,
"CA001064290","1903-06-18",73.94,48.92,0.00,0.00,
"CA001064290","1903-06-19",,,0.00,0.00,
"CA001064290","1903-06-20",,,0.00,0.00,
"CA001064290","1903-06-21",,,0.00,0.00,
"CA001064290","1903-06-22",,,0.00,0.00,
"CA001064290","1903-06-23",,,0.00,0.00,
"CA001064290","1903-06-24",60.08,48.92,287.00,0.00,
"CA001064290","1903-06-25",57.92,48.02,305.00,0.00,
"CA001064290","1903-06-26",55.04,46.94,86.00,0.00,
"CA001064290","1903-06-27",55.04,48.02,160.00,0.00,
"CA001064290","1903-06-28",55.04,44.96,23.00,0.00,
"CA001064290","1903-06-29",55.94,44.96,0.00,0.00,
"CA001064290","1903-06-30",57.92,44.96,0.00,0.00,
"CA001064290","1903-07-01",64.04,41.00,0.00,0.00,
"CA001064290","1903-07-02",66.02,51.98,0.00,0.00,
"CA001064290","1903-07-03",69.08,55.04,79.00,0.00,
"CA001064290","1903-07-04",68.00,48.02,15.00,0.00,
"CA001064290","1903-07-05",64.94,42.08,0.00,0.00,
"CA001064290","1903-07-06",84.92,42.08,0.00,0.00,
"CA001064290","1903-07-07",82.04,51.98,0.00,0.00,
"CA001064290","1903-07-08",82.04,57.02,0.00,0.00,
"CA001064290","1903-07-09",73.94,57.92,0.00,0.00,
"CA001064290","1903-07-10",69.08,60.98,0.00,0.00,
"CA001064290","1903-07-11",66.02,50.00,0.00,0.00,
"CA001064290","1903-07-12",60.98,48.92,302.00,0.00,
"CA001064290","1903-07-13",55.04,50.00,0.00,0.00,
"CA001064290","1903-07-14",57.02,50.00,8.00,0.00,
"CA001064290","1903-07-15",60.98,53.06,0.00,0.00,
"CA001064290","1903-07-16",69.98,48.92,0.00,0.00,
"CA001064290","1903-07-17",75.92,48.92,0.00,0.00,
"CA001064290","1903-07-18",73.94,46.04,0.00,0.00,
"CA001064290","1903-07-19",73.94,48.92,0.00,0.00,
"CA001064290","1903-07-20",75.02,48.92,0.00,0.00,
"CA001064290","1903-07-21",73.04,50.00,0.00,0.00,
"CA001064290","1903-07-22",69.08,53.06,0.00,0.00,
"CA001064290","1903-07-23",71.06,55.04,135.00,0.00,
"CA001064290","1903-07-24",59.00,51.08,46.00,0.00,
"CA001064290","1903-07-25",64.94,44.96,0.00,0.00,
"CA001064290","1903-07-26",69.98,51.08,0.00,0.00,
"CA001064290","1903-07-27",64.94,44.06,0.00,0.00,
"CA001064290","1903-07-28",64.94,48.02,0.00,0.00,
"CA001064290","1903-07-29",62.06,51.08,0.00,0.00,
"CA001064290","1903-07-30",62.96,53.96,0.00,0.00,
"CA001064290","1903-07-31",64.94,51.98,0.00,0.00,
"CA001064290","1903-08-01",71.96,48.92,0.00,0.00,
"CA001064290","1903-08-02",77.00,55.04,0.00,0.00,
"CA001064290","1903-08-03",75.02,57.02,0.00,0.00,
"CA001064290","1903-08-04",69.98,53.06,0.00,0.00,
"CA001064290","1903-08-05",84.92,55.94,10.00,0.00,
"CA001064290","1903-08-06",71.96,53.96,0.00,0.00,
"CA001064290","1903-08-07",68.00,59.00,66.00,0.00,
"CA001064290","1903-08-08",69.08,53.96,0.00,0.00,
"CA001064290","1903-08-09",69.98,48.92,0.00,0.00,
"CA001064290","1903-08-10",69.08,53.96,48.00,0.00,
"CA001064290","1903-08-11",69.08,57.02,0.00,0.00,
"CA001064290","1903-08-12",68.00,55.04,0.00,0.00,
"CA001064290","1903-08-13",64.04,55.04,18.00,0.00,
"CA001064290","1903-08-14",62.96,53.06,183.00,0.00,
"CA001064290","1903-08-15",71.06,44.96,0.00,0.00,
"CA001064290","1903-08-16",73.04,46.94,0.00,0.00,
"CA001064290","1903-08-17",75.92,48.92,0.00,0.00,
"CA001064290","1903-08-18",78.98,57.02,142.00,0.00,
"CA001064290","1903-08-19",64.04,51.98,56.00,0.00,
"CA001064290","1903-08-20",57.02,46.04,58.00,0.00,
"CA001064290","1903-08-21",71.06,55.04,0.00,0.00,
"CA001064290","1903-08-22",71.96,55.04,0.00,0.00,
"CA001064290","1903-08-23",66.92,53.96,0.00,0.00,
"CA001064290","1903-08-24",71.06,46.04,0.00,0.00,
"CA001064290","1903-08-25",73.94,55.04,20.00,0.00,
"CA001064290","1903-08-26",60.08,53.96,173.00,0.00,
"CA001064290","1903-08-27",60.08,48.92,0.00,0.00,
"CA001064290","1903-08-28",60.98,44.96,8.00,0.00,
"CA001064290","1903-08-29",59.00,48.92,20.00,0.00,
"CA001064290","1903-08-30",62.06,44.96,61.00,0.00,
"CA001064290","1903-08-31",59.00,46.04,0.00,0.00,
"CA001064290","1903-09-01",60.08,44.06,0.00,0.00,
"CA001064290","1903-09-02",66.92,39.92,0.00,0.00,
"CA001064290","1903-09-03",75.92,42.98,0.00,0.00,
"CA001064290","1903-09-04",77.00,44.06,0.00,0.00,
"CA001064290","1903-09-05",69.08,53.96,0.00,0.00,
"CA001064290","1903-09-06",57.92,46.94,0.00,0.00,
"CA001064290","1903-09-07",60.98,42.98,0.00,0.00,
"CA001064290","1903-09-08",60.98,48.02,97.00,0.00,
"CA001064290","1903-09-09",55.04,42.98,239.00,0.00,
"CA001064290","1903-09-10",57.02,48.02,0.00,0.00,
"CA001064290","1903-09-11",64.94,35.06,0.00,0.00,
"CA001064290","1903-09-12",64.94,37.04,0.00,0.00,
"CA001064290","1903-09-13",53.96,35.06,0.00,0.00,
"CA001064290","1903-09-14",60.98,37.94,0.00,0.00,
"CA001064290","1903-09-15",55.94,39.02,0.00,0.00,
"CA001064290","1903-09-16",64.04,42.98,33.00,0.00,
"CA001064290","1903-09-17",64.94,48.02,203.00,0.00,
"CA001064290","1903-09-18",50.00,44.06,122.00,0.00,
"CA001064290","1903-09-19",48.92,42.08,155.00,0.00,
"CA001064290","1903-09-20",53.06,44.06,30.00,0.00,
"CA001064290","1903-09-21",55.94,37.04,0.00,0.00,
"CA001064290","1903-09-22",51.08,42.08,259.00,0.00,
"CA001064290","1903-09-23",57.02,44.06,279.00,0.00,
"CA001064290","1903-09-24",55.04,48.92,0.00,0.00,
"CA001064290","1903-09-25",55.94,48.02,0.00,0.00,
"CA001064290","1903-09-26",55.94,44.06,155.00,0.00,
"CA001064290","1903-09-27",51.08,42.08,137.00,0.00,
"CA001064290","1903-09-28",48.92,39.92,15.00,0.00,
"CA001064290","1903-09-29",48.02,41.00,178.00,0.00,
"CA001064290","1903-09-30",46.04,44.06,124.00,0.00,
"CA001064290","1903-10-01",62.96,35.06,36.00,0.00,
"CA001064290","1903-10-02",55.04,26.96,0.00,0.00,
"CA001064290","1903-10-03",51.98,26.96,0.00,0.00,
"CA001064290","1903-10-04",42.98,35.06,150.00,0.00,
"CA001064290","1903-10-05",46.94,37.94,61.00,0.00,
"CA001064290","1903-10-06",44.96,39.92,262.00,0.00,
"CA001064290","1903-10-07",44.96,37.04,107.00,0.00,
"CA001064290","1903-10-08",46.04,37.94,0.00,0.00,
"CA001064290","1903-10-09",64.94,32.00,0.00,0.00,
"CA001064290","1903-10-10",68.00,33.08,0.00,0.00,
"CA001064290","1903-10-11",64.04,37.04,160.00,0.00,
"CA001064290","1903-10-12",73.94,44.96,1118.00,0.00,
"CA001064290","1903-10-13",51.98,39.92,445.00,0.00,
"CA001064290","1903-10-14",46.04,39.92,8.00,0.00,
"CA001064290","1903-10-15",46.94,42.08,706.00,0.00,
"CA001064290","1903-10-16",55.04,44.96,196.00,0.00,
"CA001064290","1903-10-17",55.04,46.04,668.00,0.00,
"CA001064290","1903-10-18",51.98,41.00,0.00,0.00,
"CA001064290","1903-10-19",53.96,44.96,8.00,0.00,
"CA001064290","1903-10-20",51.98,37.04,193.00,0.00,
"CA001064290","1903-10-21",51.98,42.08,0.00,0.00,
"CA001064290","1903-10-22",57.02,42.08,0.00,0.00,
"CA001064290","1903-10-23",50.00,42.08,165.00,0.00,
"CA001064290","1903-10-24",50.00,42.08,0.00,0.00,
"CA001064290","1903-10-25",48.02,42.08,0.00,0.00,
"CA001064290","1903-10-26",51.98,41.00,81.00,0.00,
"CA001064290","1903-10-27",46.94,39.02,572.00,0.00,
"CA001064290","1903-10-28",46.94,41.00,396.00,0.00,
"CA001064290","1903-10-29",48.92,42.08,119.00,0.00,
"CA001064290","1903-10-30",48.92,42.98,0.00,0.00,
"CA001064290","1903-10-31",42.08,35.06,785.00,0.00,
"CA001064290","1903-11-01",41.00,33.08,340.00,0.00,
"CA001064290","1903-11-02",44.06,32.00,112.00,0.00,
"CA001064290","1903-11-03",46.94,33.08,0.00,0.00,
"CA001064290","1903-11-04",44.06,35.96,0.00,0.00,
"CA001064290","1903-11-05",42.08,37.04,183.00,0.00,
"CA001064290","1903-11-06",44.96,30.92,0.00,0.00,
"CA001064290","1903-11-07",37.04,32.00,0.00,0.00,
"CA001064290","1903-11-08",35.96,32.00,56.00,56.00,
"CA001064290","1903-11-09",37.04,30.92,0.00,0.00,
"CA001064290","1903-11-10",39.02,26.96,163.00,163.00,
"CA001064290","1903-11-11",35.06,26.06,23.00,23.00,
"CA001064290","1903-11-12",32.00,23.00,0.00,0.00,
"CA001064290","1903-11-13",30.02,12.92,0.00,0.00,
"CA001064290","1903-11-14",23.00,10.94,0.00,0.00,
"CA001064290","1903-11-15",23.00,12.92,0.00,0.00,
"CA001064290","1903-11-16",24.08,10.94,0.00,0.00,
"CA001064290","1903-11-17",23.00,14.00,0.00,0.00,
"CA001064290","1903-11-18",28.94,21.92,0.00,0.00,
"CA001064290","1903-11-19",35.06,24.98,0.00,0.00,
"CA001064290","1903-11-20",37.04,28.04,0.00,0.00,
"CA001064290","1903-11-21",37.04,24.98,0.00,0.00,
"CA001064290","1903-11-22",42.98,35.06,0.00,0.00,
"CA001064290","1903-11-23",42.98,35.06,89.00,89.00,
"CA001064290","1903-11-24",44.96,32.00,175.00,0.00,
"CA001064290","1903-11-25",41.00,30.92,480.00,0.00,
"CA001064290","1903-11-26",37.04,32.00,135.00,0.00,
"CA001064290","1903-11-27",39.02,33.08,58.00,0.00,
"CA001064290","1903-11-28",42.08,33.98,297.00,0.00,
"CA001064290","1903-11-29",42.08,37.04,429.00,0.00,
"CA001064290","1903-11-30",44.96,37.04,0.00,0.00,
"CA001064290","1903-12-01",37.04,30.92,462.00,0.00,
"CA001064290","1903-12-02",37.04,28.94,0.00,0.00,
"CA001064290","1903-12-03",33.98,28.94,0.00,0.00,
"CA001064290","1903-12-04",37.04,30.92,0.00,0.00,
"CA001064290","1903-12-05",42.08,33.08,188.00,0.00,
"CA001064290","1903-12-06",41.00,33.08,168.00,0.00,
"CA001064290","1903-12-07",46.04,33.08,0.00,0.00,
"CA001064290","1903-12-08",39.02,30.92,0.00,0.00,
"CA001064290","1903-12-09",41.00,28.94,0.00,0.00,
"CA001064290","1903-12-10",41.00,28.04,0.00,0.00,
"CA001064290","1903-12-11",33.08,30.02,0.00,0.00,
"CA001064290","1903-12-12",35.06,30.92,0.00,0.00,
"CA001064290","1903-12-13",32.00,26.96,89.00,89.00,
"CA001064290","1903-12-14",35.06,30.02,76.00,76.00,
"CA001064290","1903-12-15",37.04,32.00,419.00,0.00,
"CA001064290","1903-12-16",37.04,33.08,0.00,0.00,
"CA001064290","1903-12-17",35.06,32.00,0.00,0.00,
"CA001064290","1903-12-18",35.06,32.00,262.00,0.00,
"CA001064290","1903-12-19",35.06,33.08,0.00,0.00,
"CA001064290","1903-12-20",37.04,33.08,38.00,0.00,
"CA001064290","1903-12-21",39.02,32.00,137.00,0.00,
"CA001064290","1903-12-22",37.04,33.98,58.00,0.00,
"CA001064290","1903-12-23",39.92,33.08,241.00,0.00,
"CA001064290","1903-12-24",41.00,33.08,0.00,0.00,
"CA001064290","1903-12-25",42.98,32.00,30.00,0.00,
"CA001064290","1903-12-26",44.96,33.08,274.00,0.00,
"CA001064290","1903-12-27",46.04,33.98,0.00,0.00,
"CA001064290","1903-12-28",42.98,32.00,262.00,0.00,
"CA001064290","1903-12-29",39.92,30.92,0.00,0.00,
"CA001064290","1903-12-30",42.08,32.00,0.00,0.00,
"CA001064290","1903-12-31",33.08,26.06,0.00,0.00,
"CA001064290","1904-01-01",32.00,24.08,0.00,0.00,
"CA001064290","1904-01-02",35.06,26.06,254.00,254.00,
"CA001064290","1904-01-03",35.06,32.00,135.00,135.00,
"CA001064290","1904-01-04",37.94,32.00,356.00,0.00,
"CA001064290","1904-01-05",37.04,33.98,0.00,0.00,
"CA001064290","1904-01-06",44.06,33.98,345.00,0.00,
"CA001064290","1904-01-07",42.98,32.00,737.00,0.00,
"CA001064290","1904-01-08",46.04,33.98,0.00,0.00,
"CA001064290","1904-01-09",35.96,28.04,0.00,0.00,
"CA001064290","1904-01-10",35.06,30.02,71.00,71.00,
"CA001064290","1904-01-11",35.06,28.04,279.00,279.00,
"CA001064290","1904-01-12",39.92,28.04,432.00,305.00,
"CA001064290","1904-01-13",35.06,30.92,114.00,114.00,
"CA001064290","1904-01-14",35.96,24.98,76.00,76.00,
"CA001064290","1904-01-15",26.06,17.06,13.00,13.00,
"CA001064290","1904-01-16",24.08,1.04,305.00,305.00,
"CA001064290","1904-01-17",14.00,-2.02,0.00,0.00,
"CA001064290","1904-01-18",12.92,-2.02,0.00,0.00,
"CA001064290","1904-01-19",10.04,-0.94,203.00,203.00,
"CA001064290","1904-01-20",15.98,3.02,173.00,173.00,
"CA001064290","1904-01-21",21.92,15.08,76.00,76.00,
"CA001064290","1904-01-22",37.04,24.08,127.00,127.00,
"CA001064290","1904-01-23",37.94,32.00,0.00,0.00,
"CA001064290","1904-01-24",41.00,33.08,127.00,0.00,
"CA001064290","1904-01-25",41.00,30.02,76.00,0.00,
"CA001064290","1904-01-26",42.08,33.98,0.00,0.00,
"CA001064290","1904-01-27",39.02,33.08,127.00,0.00,
"CA001064290","1904-01-28",44.06,35.06,0.00,0.00,
"CA001064290","1904-01-29",44.06,35.06,0.00,0.00,
"CA001064290","1904-01-30",44.96,30.02,0.00,0.00,
"CA001064290","1904-01-31",44.96,30.92,0.00,0.00,
"CA001064290","1904-02-01",41.00,,0.00,0.00,
"CA001064290","1904-02-02",41.00,30.92,76.00,76.00,
"CA001064290","1904-02-03",35.06,30.02,178.00,25.00,
"CA001064290","1904-02-04",41.00,15.08,0.00,0.00,
"CA001064290","1904-02-05",15.08,6.98,0.00,0.00,
"CA001064290","1904-02-06",14.00,6.08,0.00,0.00,
"CA001064290","1904-02-07",19.04,-2.02,0.00,0.00,
"CA001064290","1904-02-08",19.94,3.02,0.00,0.00,
"CA001064290","1904-02-09",17.96,8.06,0.00,0.00,
"CA001064290","1904-02-10",17.06,6.08,0.00,0.00,
"CA001064290","1904-02-11",21.02,8.06,0.00,0.00,
"CA001064290","1904-02-12",17.96,8.96,0.00,0.00,
"CA001064290","1904-02-13",24.08,10.94,0.00,0.00,
"CA001064290","1904-02-14",17.96,10.04,0.00,0.00,
"CA001064290","1904-02-15",21.92,12.02,0.00,0.00,
"CA001064290","1904-02-16",24.08,12.02,76.00,76.00,
"CA001064290","1904-02-17",26.06,17.96,254.00,254.00,
"CA001064290","1904-02-18",28.94,26.06,229.00,229.00,
"CA001064290","1904-02-19",33.08,28.04,76.00,76.00,
"CA001064290","1904-02-20",33.98,14.00,51.00,51.00,
"CA001064290","1904-02-21",24.08,8.96,0.00,0.00,
"CA001064290","1904-02-22",24.08,12.02,0.00,0.00,
"CA001064290","1904-02-23",28.04,17.06,0.00,0.00,
"CA001064290","1904-02-24",28.94,12.02,0.00,0.00,
"CA001064290","1904-02-25",35.06,12.02,0.00,0.00,
"CA001064290","1904-02-26",28.04,21.92,0.00,0.00,
"CA001064290","1904-02-27",28.04,14.00,0.00,0.00,
"CA001064290","1904-02-28",26.06,14.00,0.00,0.00,
"CA001064290","1904-02-29",19.04,10.94,0.00,0.00,
"CA001064290","1904-03-01",12.92,10.94,0.00,0.00,
"CA001064290","1904-03-02",24.98,8.06,76.00,76.00,
"CA001064290","1904-03-03",28.04,12.92,0.00,0.00,
"CA001064290","1904-03-04",30.92,24.98,102.00,102.00,
"CA001064290","1904-03-05",33.98,24.98,51.00,51.00,
"CA001064290","1904-03-06",35.06,24.98,10.00,10.00,
"CA001064290","1904-03-07",35.06,30.92,8.00,8.00,
"CA001064290","1904-03-08",39.02,21.92,0.00,0.00,
"CA001064290","1904-03-09",35.06,21.02,0.00,0.00,
"CA001064290","1904-03-10",33.98,23.00,109.00,109.00,
"CA001064290","1904-03-11",35.06,21.92,0.00,0.00,
"CA001064290","1904-03-12",37.94,24.98,0.00,0.00,
"CA001064290","1904-03-13",41.00,28.94,0.00,0.00,
"CA001064290","1904-03-14",42.08,24.98,0.00,0.00,
"CA001064290","1904-03-15",41.00,26.96,0.00,0.00,
"CA001064290","1904-03-16",35.06,28.04,0.00,0.00,
"CA001064290","1904-03-17",41.00,28.04,0.00,0.00,
"CA001064290","1904-03-18",44.96,21.02,0.00,0.00,
"CA001064290","1904-03-19",42.08,12.02,0.00,0.00,
"CA001064290","1904-03-20",39.02,17.96,0.00,0.00,
"CA001064290","1904-03-21",21.92,14.00,0.00,0.00,
"CA001064290","1904-03-22",35.06,14.00,0.00,0.00,
"CA001064290","1904-03-23",37.94,15.08,0.00,0.00,
"CA001064290","1904-03-24",42.98,24.08,0.00,0.00,
"CA001064290","1904-03-25",44.96,19.94,0.00,0.00,
"CA001064290","1904-03-26",46.94,23.00,0.00,0.00,
"CA001064290","1904-03-27",55.94,26.96,0.00,0.00,
"CA001064290","1904-03-28",57.02,24.98,0.00,0.00,
"CA001064290","1904-03-29",46.94,35.06,0.00,0.00,
"CA001064290","1904-03-30",42.08,35.06,0.00,0.00,
"CA001064290","1904-03-31",46.94,37.94,8.00,0.00,
"CA001064290","1904-04-01",44.06,33.98,43.00,0.00,
"CA001064290","1904-04-02",44.96,26.96,0.00,0.00,
"CA001064290","1904-04-03",46.94,26.96,0.00,0.00,
"CA001064290","1904-04-04",48.02,26.06,0.00,0.00,
"CA001064290","1904-04-05",46.94,28.04,0.00,0.00,
"CA001064290","1904-04-06",48.92,28.94,0.00,0.00,
"CA001064290","1904-04-07",57.92,33.08,0.00,0.00,
"CA001064290","1904-04-08",73.94,30.92,0.00,0.00,